[[{"header":{"parameterUnit":"m.s-1","parameterCategory":1,"la1":30.2991,"la2":30.254,"lo1":-89.0895,"lo2":-89.0444,"dy":0.0017,"dx":0.0017,"nx":28,"ny":28,"refTime":"2023-11-12T03:00:00:Z","depth":0,"parameterNumber":2,"parameterNumberName":"U-component_of_WINDS"},"data":[0,0,0,0,0,0,0,0,0,0,0,0,0,0,0,0,0,0,0,0,0,0,0,0,0,0,0,0,0,0,0,0,0,0,0,0,0,0,0,0,0,0,0,0,0,0,0,0,0,0,0,0,0,0,0,0,0,0,-1.9822,-1.9822,0,-1.9858,-1.9858,-1.9859,-1.9808,-1.9806,-1.9804,-1.9803,-1.984,-1.9843,-1.9845,0,0,0,0,0,0,0,0,0,0,0,0,0,-1.971,-1.9712,-1.9822,-1.9822,-1.9823,-1.9858,-1.9858,-1.9859,-1.9808,-1.9806,-1.9804,-1.9802,-1.9839,-1.9842,-1.9846,0,0,0,0,0,0,0,0,0,0,0,0,0,-1.9754,-1.9713,-1.9822,-1.9802,-1.98,-1.9858,-1.9858,-1.9859,-1.9809,-1.9806,-1.9803,-1.9801,-1.9838,-1.9842,-1.9846,-1.9925,0,0,-1.9858,-1.986,0,0,0,0,0,0,0,0,-1.9751,-1.9758,-1.9804,-1.9803,-1.9802,-1.9826,-1.9832,-1.9881,-1.981,-1.9806,-1.9803,-1.98,-1.9838,-1.9841,-1.9854,-1.9927,-1.9928,-1.9859,-1.9861,-1.9863,-1.9864,0,0,0,0,0,0,0,-1.9748,-1.9756,-1.9836,-1.9805,-1.9804,-1.9791,-1.9794,-1.9841,-1.9836,-1.9806,-1.9802,-1.9807,-1.9836,-1.985,-1.9855,-1.9929,-1.9859,-1.9862,-1.9865,-1.9866,-2.0068,-2.0071,0,0,0,0,0,0,-1.9748,-1.9754,-1.9835,-1.9837,-1.9769,-1.9795,-1.9799,-1.9821,-1.9836,-1.9835,-1.9809,-1.9805,-1.9845,-1.985,-1.9856,-1.995,-1.9863,-1.9866,-1.9869,-2.0065,-2.0069,-2.0072,0,0,0,0,0,0,-1.9745,-1.9755,-1.9834,-1.9795,-1.9804,-1.98,-1.9825,-1.9823,-1.9837,-1.9838,-1.9837,-1.9825,-1.9843,-1.985,-1.9908,-1.9951,-1.9868,-1.9872,-2.0062,-2.0067,-2.0071,-2.0139,0,0,0,0,0,0,-1.9742,-1.9755,-1.9785,-1.9796,-1.9806,-1.9886,-1.9828,-1.9826,-1.9844,-1.9838,-1.9852,-1.9852,-1.9841,-1.9902,-1.9912,-1.9955,-1.9875,-2.0058,-2.0064,-2.0069,-2.0133,-2.0145,-2.0155,0,0,0,0,0,-1.9739,-1.9802,-1.9786,-1.9797,-1.9843,-1.9888,-1.9894,-1.988,-1.9848,-1.9878,-1.9879,-1.9852,-1.9944,-1.9909,-1.9919,-1.9964,-2.0055,-2.0062,-2.0069,-2.0128,-2.0143,-2.0155,0,0,0,0,0,0,-1.9797,-1.9803,-1.9786,-1.9855,-1.9871,-1.9879,-1.9917,-1.9896,-1.9922,-1.9916,-1.9897,-1.9901,-1.9963,-1.9969,-1.993,-2.0041,-1.9994,-2.0003,-2.0035,-2.005,-2.0061,-2.0059,-1.9878,0,0,0,0,0,-1.9817,-1.9853,-1.9857,-1.9918,-1.9927,-1.9921,-1.994,-1.9928,-1.9944,-1.9951,-1.9956,-1.9973,-2.0005,-2.0027,-2.0058,-2.0132,-2.0136,-2.0168,-2.0179,-2.0189,-2.0198,-2.0239,-2.0254,-2.0094,-2.0094,-2.0094,0,0,-1.9861,-1.9869,-1.9893,-1.993,-1.9941,-1.9979,-1.9927,-1.9969,-1.9997,-1.9957,-2.0013,-2.0017,-2.0034,-2.0102,-2.0132,-2.0108,-2.0242,-2.0197,-2.0205,-2.0208,-2.0247,-2.0262,-2.0276,-2.0099,-2.0098,-2.0097,0,0,-1.996,-1.9969,-2.0021,-2.0034,-2.0051,-2.0047,-2.0059,-2.007,-2.0072,-2.0127,-2.0098,-2.0131,-2.0188,-2.0202,-2.0216,-2.0321,-2.0297,-2.0331,-2.0391,-2.0431,-2.0444,-2.0455,-2.0494,-2.0507,-2.0339,-2.0339,-2.0339,0,-2.0012,-2.0068,-2.0051,-2.0095,-2.0113,-2.0078,-2.0131,-2.0143,-2.017,-2.0183,-2.0156,-2.0227,-2.0236,-2.0307,-2.0332,-2.0345,-2.0359,-2.033,-2.0443,-2.0454,-2.0464,-2.0501,-2.0516,-2.0343,-2.0343,-2.0342,-2.0342,0,-2.0132,-2.0171,-2.0211,-2.0238,-2.026,-2.0308,-2.0299,-2.0323,-2.0308,-2.0307,-2.0364,-2.0373,-2.0405,-2.0421,-2.0407,-2.049,-2.0475,-2.0446,-2.0399,-2.0484,-2.0518,-2.0532,-2.0349,-2.0348,-2.0346,-2.0345,0,0,-2.027,-2.0286,-2.0302,-2.0314,-2.033,-2.0361,-2.0407,-2.0439,-2.046,-2.0479,-2.0519,-2.0568,-2.0541,-2.0558,-2.0545,-2.058,-2.0664,-2.0547,-2.0547,-2.057,-2.0757,-2.078,-2.0797,-2.0648,-2.065,-2.0652,-2.0756,0,-2.037,-2.0452,-2.0437,-2.0517,-2.0553,-2.052,-2.0561,-2.0576,-2.0575,-2.0606,-2.0605,-2.0641,-2.0602,-2.0613,-2.0646,-2.0647,-2.0702,-2.0639,-2.0686,-2.0688,-2.0684,-2.0814,-2.0839,-2.0937,-2.0769,-2.0772,-2.0773,0,-2.0498,-2.0523,-2.0606,-2.0617,-2.0632,-2.0669,-2.0697,-2.0727,-2.0743,-2.074,-2.0759,-2.074,-2.0787,-2.0738,-2.0803,-2.0761,-2.0779,-2.0782,-2.0786,-2.0791,-2.0737,-2.0825,-2.0967,-2.0983,-2.0794,-2.0792,-2.0791,0,-2.0593,-2.0646,-2.0703,-2.0714,-2.0729,-2.0756,-2.0763,-2.0776,-2.0796,-2.082,-2.0833,-2.0862,-2.0879,-2.0902,-2.0891,-2.0856,-2.0959,-2.0909,-2.0959,-2.096,-2.0984,-2.0983,-2.1133,-2.0993,-2.0992,-2.0992,-2.0992,0,-2.0707,-2.076,-2.0746,-2.0781,-2.0839,-2.0822,-2.088,-2.0883,-2.0895,-2.0931,-2.0903,-2.0937,-2.092,-2.0953,-2.0945,-2.1001,-2.1008,-2.1008,-2.1005,-2.1012,-2.1012,-2.1025,-2.1018,-2.0996,-2.0995,-2.0994,-2.0994,0,-2.0824,-2.0816,-2.0876,-2.0885,-2.0888,-2.0931,-2.0938,-2.0971,-2.0968,-2.1014,-2.1023,-2.1019,-2.1056,-2.1047,-2.1088,-2.1082,-2.1154,-2.1142,-2.1149,-2.1146,-2.1198,-2.1194,-2.1363,-2.1385,-2.1228,-2.123,-2.1231,0,-2.0898,-2.0938,-2.0951,-2.0973,-2.0982,-2.1017,-2.1038,-2.1022,-2.1044,-2.1066,-2.1096,-2.1131,-2.1158,-2.1219,-2.122,-2.1251,-2.1241,-2.1298,-2.1245,-2.1251,-2.1244,-2.1242,-2.1247,-2.1309,-2.1311,-2.1312,-2.1313,0,-2.1032,-2.1026,-2.1056,-2.1086,-2.1111,-2.1133,-2.1152,-2.1172,-2.1157,-2.1184,-2.1221,-2.1242,-2.1284,-2.1319,-2.1348,-2.1355,-2.1333,-2.1329,-2.1343,-2.1351,-2.1354,-2.1355,-2.1179,-2.1326,-2.1325,-2.1324,-2.1323,-2.1323,-2.1131,-2.1165,-2.118,-2.1214,-2.1227,-2.1246,-2.1278,-2.1279,-2.131,-2.1343,-2.1331,-2.1375,-2.139,-2.1426,-2.1437,-2.1471,-2.145,-2.1469,-2.1474,-2.148,-2.1487,-2.1347,-2.1476,-2.1476,-2.1475,-2.1475,-2.1475,0,-2.1265,-2.1272,-2.1304,-2.1333,-2.136,-2.1335,-2.1356,-2.1381,-2.1419,-2.1435,-2.1462,-2.1506,-2.154,-2.1543,-2.1575,-2.1602,-2.1593,-2.1611,-2.161,-2.1613,-2.1504,-2.149,-2.1618,-2.1618,-2.1618,-2.1618,-2.1618,-2.1618,-2.1338,-2.1395,-2.1391,-2.1454,-2.1461,-2.1504,-2.1518,-2.1535,-2.1548,-2.1598,-2.1626,-2.1628,-2.1639,-2.1672,-2.1702,-2.1702,-2.1716,-2.1739,-2.1735,-2.1634,-2.162,-2.1606,-2.1593,-2.1742,-2.1742,-2.1842,-2.1843,-2.1843]},{"header":{"parameterUnit":"m.s-1","parameterCategory":1,"la1":30.2991,"la2":30.254,"lo1":-89.0895,"lo2":-89.0444,"dy":0.0017,"dx":0.0017,"nx":28,"ny":28,"refTime":"2023-11-12T03:00:00:Z","depth":0,"parameterNumber":3,"parameterNumberName":"V-component_of_WINDS"},"data":[0,0,0,0,0,0,0,0,0,0,0,0,0,0,0,0,0,0,0,0,0,0,0,0,0,0,0,0,0,0,0,0,0,0,0,0,0,0,0,0,0,0,0,0,0,0,0,0,0,0,0,0,0,0,0,0,0,0,-3.8126,-3.8126,0,-3.8147,-3.8147,-3.8147,-3.8109,-3.8108,-3.8107,-3.8106,-3.8125,-3.8127,-3.8129,0,0,0,0,0,0,0,0,0,0,0,0,0,-3.805,-3.8051,-3.8126,-3.8126,-3.8126,-3.8147,-3.8147,-3.8147,-3.811,-3.8108,-3.8106,-3.8105,-3.8125,-3.8127,-3.8129,0,0,0,0,0,0,0,0,0,0,0,0,0,-3.8078,-3.8052,-3.8126,-3.811,-3.8109,-3.8147,-3.8147,-3.8147,-3.811,-3.8108,-3.8106,-3.8104,-3.8124,-3.8127,-3.8129,-3.8183,0,0,-3.8137,-3.8138,0,0,0,0,0,0,0,0,-3.8076,-3.8081,-3.8112,-3.8111,-3.811,-3.8124,-3.8128,-3.8159,-3.811,-3.8109,-3.8106,-3.8103,-3.8126,-3.8128,-3.8136,-3.8184,-3.8185,-3.8137,-3.8139,-3.814,-3.8141,0,0,0,0,0,0,0,-3.8075,-3.808,-3.8134,-3.8112,-3.8111,-3.8101,-3.8103,-3.8133,-3.8128,-3.8109,-3.8107,-3.811,-3.8125,-3.8134,-3.8137,-3.8185,-3.8137,-3.8139,-3.8141,-3.8142,-3.8277,-3.8279,0,0,0,0,0,0,-3.8075,-3.8078,-3.8133,-3.8135,-3.8088,-3.8104,-3.8106,-3.8121,-3.8128,-3.8127,-3.8111,-3.8108,-3.8131,-3.8134,-3.8137,-3.8201,-3.814,-3.8142,-3.8144,-3.8275,-3.8278,-3.828,0,0,0,0,0,0,-3.8073,-3.808,-3.8132,-3.8106,-3.8112,-3.8107,-3.8124,-3.8122,-3.8131,-3.8129,-3.8128,-3.8122,-3.8129,-3.8134,-3.8172,-3.8201,-3.8143,-3.8146,-3.8273,-3.8276,-3.8279,-3.8328,0,0,0,0,0,0,-3.8071,-3.808,-3.8101,-3.8107,-3.8113,-3.8168,-3.8126,-3.8124,-3.8136,-3.8132,-3.8139,-3.8138,-3.8128,-3.8168,-3.8175,-3.8203,-3.8148,-3.827,-3.8274,-3.8278,-3.8324,-3.8332,-3.834,0,0,0,0,0,-3.8069,-3.8114,-3.8102,-3.8109,-3.814,-3.8169,-3.8173,-3.8162,-3.8139,-3.8159,-3.8158,-3.8138,-3.8197,-3.8173,-3.8179,-3.8209,-3.8268,-3.8273,-3.8277,-3.832,-3.8331,-3.834,0,0,0,0,0,0,-3.8111,-3.8114,-3.8102,-3.815,-3.816,-3.8163,-3.8189,-3.8173,-3.8189,-3.8185,-3.8169,-3.8171,-3.8212,-3.8214,-3.8188,-3.8261,-3.8228,-3.8235,-3.8259,-3.8269,-3.8276,-3.8275,-3.815,0,0,0,0,0,-3.8126,-3.8151,-3.8152,-3.8194,-3.82,-3.8194,-3.8206,-3.8196,-3.8206,-3.821,-3.8211,-3.822,-3.8241,-3.8255,-3.8273,-3.8324,-3.8324,-3.8347,-3.8355,-3.8362,-3.8368,-3.8394,-3.8404,-3.8295,-3.8295,-3.8295,0,0,-3.8157,-3.8162,-3.8178,-3.8203,-3.8209,-3.8235,-3.8197,-3.8226,-3.8244,-3.8214,-3.825,-3.8251,-3.8261,-3.8305,-3.8325,-3.8308,-3.8398,-3.8368,-3.8373,-3.8375,-3.84,-3.841,-3.8419,-3.8298,-3.8298,-3.8297,0,0,-3.8227,-3.8233,-3.8269,-3.8276,-3.8287,-3.8282,-3.8291,-3.8297,-3.8297,-3.8333,-3.8311,-3.8332,-3.8368,-3.8375,-3.8383,-3.8455,-3.8437,-3.8462,-3.8504,-3.8529,-3.8538,-3.8545,-3.8571,-3.858,-3.8467,-3.8467,-3.8467,0,-3.8264,-3.8302,-3.8289,-3.8319,-3.833,-3.8304,-3.834,-3.8347,-3.8364,-3.8371,-3.8353,-3.8397,-3.8401,-3.8447,-3.8465,-3.8472,-3.8481,-3.8461,-3.8538,-3.8545,-3.8552,-3.8576,-3.8586,-3.847,-3.847,-3.847,-3.8469,0,-3.8347,-3.8373,-3.8401,-3.8418,-3.8432,-3.8464,-3.8456,-3.8471,-3.846,-3.8457,-3.8494,-3.8499,-3.8518,-3.8528,-3.8517,-3.8572,-3.8561,-3.8541,-3.8507,-3.8566,-3.8588,-3.8597,-3.8474,-3.8473,-3.8473,-3.8472,0,0,-3.8445,-3.8453,-3.8464,-3.8471,-3.848,-3.85,-3.8531,-3.855,-3.8564,-3.8575,-3.8601,-3.8631,-3.8612,-3.8622,-3.8611,-3.8634,-3.869,-3.861,-3.861,-3.8625,-3.8751,-3.8767,-3.8778,-3.8678,-3.868,-3.8681,-3.875,0,-3.8514,-3.8568,-3.8557,-3.861,-3.8634,-3.8609,-3.8636,-3.8645,-3.8643,-3.8662,-3.8659,-3.8681,-3.8654,-3.866,-3.8681,-3.8679,-3.8716,-3.8674,-3.8701,-3.8702,-3.87,-3.8789,-3.8806,-3.8871,-3.8759,-3.876,-3.8761,0,-3.8602,-3.8618,-3.8673,-3.8678,-3.8688,-3.8712,-3.8729,-3.8748,-3.8756,-3.8753,-3.8764,-3.8749,-3.8779,-3.8745,-3.8786,-3.8758,-3.8768,-3.8769,-3.8771,-3.8773,-3.8736,-3.8794,-3.8891,-3.8901,-3.8775,-3.8774,-3.8773,0,-3.8668,-3.8702,-3.874,-3.8747,-3.8754,-3.8771,-3.8775,-3.8782,-3.8794,-3.8808,-3.8815,-3.8832,-3.8842,-3.8855,-3.8845,-3.8821,-3.8887,-3.8852,-3.8885,-3.8885,-3.89,-3.89,-3.9001,-3.8907,-3.8907,-3.8906,-3.8906,0,-3.8746,-3.8781,-3.8769,-3.8793,-3.8831,-3.8817,-3.8855,-3.8855,-3.8861,-3.8884,-3.8863,-3.8884,-3.8869,-3.8889,-3.8881,-3.8916,-3.892,-3.8918,-3.8916,-3.892,-3.8921,-3.8927,-3.8922,-3.8909,-3.8908,-3.8908,-3.8908,0,-3.8826,-3.882,-3.8859,-3.8863,-3.8864,-3.8892,-3.8894,-3.8916,-3.8912,-3.894,-3.8946,-3.894,-3.8962,-3.8953,-3.8976,-3.8971,-3.9015,-3.9007,-3.9013,-3.9011,-3.9044,-3.9041,-3.9153,-3.9167,-3.9064,-3.9065,-3.9066,0,-3.8877,-3.8903,-3.891,-3.8923,-3.8929,-3.8951,-3.8963,-3.895,-3.8964,-3.8975,-3.8995,-3.9015,-3.9031,-3.9067,-3.9064,-3.9082,-3.9074,-3.9112,-3.9076,-3.908,-3.9074,-3.9073,-3.9075,-3.9119,-3.912,-3.9121,-3.9122,0,-3.8968,-3.8963,-3.8982,-3.9,-3.9015,-3.9028,-3.904,-3.9052,-3.9039,-3.9055,-3.9078,-3.909,-3.9114,-3.9134,-3.915,-3.9152,-3.9135,-3.9133,-3.9141,-3.9146,-3.9149,-3.9148,-3.9032,-3.913,-3.913,-3.9129,-3.9128,-3.9128,-3.9035,-3.9057,-3.9065,-3.9086,-3.9094,-3.9104,-3.9124,-3.9123,-3.9142,-3.9161,-3.9152,-3.9178,-3.9185,-3.9204,-3.9209,-3.9228,-3.9214,-3.9226,-3.9229,-3.9232,-3.9237,-3.9146,-3.9231,-3.9231,-3.9231,-3.923,-3.923,0,-3.9125,-3.9129,-3.9148,-3.9165,-3.9182,-3.9164,-3.9175,-3.919,-3.9214,-3.9222,-3.9238,-3.9263,-3.9283,-3.9281,-3.9299,-3.9315,-3.9308,-3.932,-3.9319,-3.932,-3.9249,-3.924,-3.9326,-3.9326,-3.9326,-3.9326,-3.9326,-3.9326,-3.9174,-3.921,-3.9206,-3.9246,-3.9249,-3.9275,-3.9283,-3.9292,-3.9299,-3.9328,-3.9345,-3.9344,-3.9348,-3.9366,-3.9382,-3.9381,-3.9389,-3.9405,-3.9401,-3.9334,-3.9325,-3.9316,-3.9307,-3.9406,-3.9406,-3.947,-3.9471,-3.9471]}]]